Snowfall_Accumulation
0.5 1.3 1.8 0.5 0.5 0.6 0.7 1.2 1.2 0.6 0.2 0.5 0.7 0.3 0.0 0.0 0.1 0.1 0.0 0.0 0.0 0.0 0.0 0.0 0.0 0.0 0.0 0.0 0.0 0.0 0.0 0.0 0.0 0.0 0.0 0.0 0.0 0.0 0.0 0.0 0.0 0.0 0.0 0.0
1.6 1.8 0.2 0.1 0.3 0.6 1.1 1.6 1.3 0.4 0.2 0.6 0.8 0.3 0.0 0.0 0.1 0.1 0.0 0.0 0.0 0.0 0.0 0.0 0.0 0.0 0.0 0.0 0.0 0.0 0.0 0.0 0.0 0.0 0.0 0.0 0.0 0.0 0.0 0.0 0.0 0.0 0.0 0.0
2.1 1.1 0.1 0.3 0.6 0.9 1.1 1.3 1.0 1.0 0.4 0.4 1.0 0.6 0.0 0.0 0.0 0.0 0.0 0.0 0.0 0.0 0.0 0.0 0.0 0.0 0.0 0.0 0.0 0.0 0.0 0.0 0.0 0.0 0.0 0.0 0.0 0.0 0.0 0.0 0.0 0.0 0.0 0.0
1.4 0.3 0.2 1.0 1.0 0.8 1.1 0.3 0.5 1.0 1.9 1.7 1.4 2.1 0.2 0.0 0.0 0.0 0.0 0.0 0.0 0.0 0.0 0.0 0.0 0.0 0.0 0.0 0.0 0.0 0.0 0.0 0.0 0.0 0.0 0.0 0.0 0.0 0.0 0.0 0.0 0.0 0.0 0.0
1.6 0.5 0.6 1.2 1.0 0.5 0.6 0.2 0.4 0.8 2.1 2.8 1.4 2.7 0.6 0.2 0.1 0.1 0.0 0.0 0.0 0.0 0.0 0.0 0.0 0.0 0.0 0.0 0.0 0.0 0.0 0.0 0.0 0.0 0.0 0.0 0.0 0.0 0.0 0.0 0.0 0.0 0.0 0.0
0.9 0.4 0.9 0.9 0.2 0.3 0.4 0.5 0.6 1.1 2.7 6.7 1.8 2.2 1.1 0.6 0.9 0.4 0.0 0.0 0.0 0.0 0.0 0.0 0.0 0.0 0.0 0.0 0.0 0.0 0.0 0.0 0.0 0.0 0.0 0.0 0.0 0.0 0.0 0.0 0.0 0.0 0.0 0.0
2.6 0.8 0.6 0.5 1.3 0.8 1.4 4.3 10.0 10.1 9.8 5.1 0.4 1.3 1.1 0.4 0.2 0.2 0.1 0.1 0.1 0.1 0.0 0.0 0.1 0.1 0.0 0.0 0.0 0.0 0.0 0.0 0.0 0.0 0.0 0.0 0.0 0.0 0.0 0.0 0.0 0.0 0.1 0.0
4.4 2.9 0.8 0.9 1.2 1.7 2.1 4.0 8.9 7.9 4.4 1.2 0.3 0.9 0.9 0.3 0.2 0.2 0.2 0.2 0.1 0.1 0.1 0.0 0.1 0.1 0.1 0.0 0.0 0.0 0.0 0.0 0.0 0.0 0.0 0.0 0.0 0.0 0.0 0.0 0.0 0.1 0.1 0.1
4.8 3.1 0.7 0.6 0.4 1.1 2.2 3.8 2.7 5.3 3.9 2.1 1.0 0.6 0.5 0.3 0.2 0.1 0.1 0.2 0.2 0.1 0.0 0.1 0.1 0.1 0.0 0.0 0.0 0.0 0.0 0.0 0.0 0.0 0.0 0.0 0.0 0.0 0.0 0.0 0.0 0.1 0.1 0.1
4.5 4.3 1.4 0.5 0.5 0.6 1.0 1.8 3.8 8.6 7.7 3.4 1.2 0.7 0.9 0.6 0.4 0.2 0.1 0.2 0.2 0.2 0.2 0.2 0.2 0.2 0.1 0.1 0.0 0.0 0.0 0.0 0.0 0.0 0.0 0.0 0.0 0.0 0.0 0.0 0.1 0.1 0.1 0.1
3.9 5.4 3.1 1.8 2.3 2.4 2.0 2.7 4.5 7.0 6.4 4.5 2.2 1.2 1.1 0.6 0.5 0.5 0.4 0.2 0.2 0.2 0.3 0.3 0.4 0.3 0.2 0.1 0.1 0.0 0.0 0.0 0.0 0.0 0.0 0.0 0.0 0.0 0.0 0.1 0.1 0.1 0.1 0.1
3.6 5.8 5.1 2.2 1.3 1.0 2.2 2.7 3.8 7.7 6.5 3.9 2.9 1.2 0.5 0.6 0.5 0.5 0.6 0.5 0.3 0.3 0.3 0.3 0.6 0.5 0.3 0.3 0.2 0.1 0.0 0.0 0.0 0.0 0.0 0.0 0.0 0.0 0.1 0.1 0.1 0.1 0.1 0.1
6.4 9.6 9.1 3.1 2.2 2.1 3.5 3.4 3.5 4.2 4.7 4.1 3.3 1.0 0.3 0.4 0.4 0.4 0.5 0.5 0.4 0.3 0.3 0.3 0.6 0.6 0.7 0.5 0.4 0.3 0.1 0.0 0.0 0.0 0.0 0.0 0.0 0.0 0.1 0.1 0.1 0.0 0.1 0.1
6.7 12.1 8.1 6.3 4.1 4.3 4.3 3.5 3.3 5.0 6.9 3.7 1.2 0.7 0.6 0.5 0.4 0.4 0.5 0.6 0.5 0.4 0.4 0.4 0.4 0.5 0.5 0.4 0.5 0.5 0.2 0.0 0.0 0.0 0.0 0.0 0.0 0.1 0.0 0.1 0.1 0.2 0.1 0.5
7.6 11.0 4.4 2.1 1.7 2.3 2.6 2.3 2.5 3.7 3.7 3.0 0.7 0.6 0.8 0.8 0.5 0.6 0.7 0.7 0.7 0.6 0.5 0.4 0.4 0.4 0.5 0.8 0.5 0.3 0.2 0.1 0.1 0.0 0.0 0.0 0.0 0.1 0.0 0.1 0.1 0.2 0.4 0.5
8.2 9.8 4.6 2.2 1.1 1.8 2.0 1.3 1.4 1.6 1.5 1.3 0.7 0.4 0.3 0.3 0.4 0.5 0.6 0.7 0.9 0.9 0.8 0.5 0.4 0.5 0.4 0.7 0.4 0.3 0.3 0.2 0.1 0.1 0.1 0.0 0.1 0.1 0.2 0.2 0.1 0.3 0.4 0.7
9.1 9.7 8.6 4.8 1.3 3.3 4.2 1.4 1.1 1.1 1.1 1.2 1.5 1.0 0.6 0.3 0.4 0.6 0.7 0.8 1.2 1.1 0.9 0.6 0.5 0.6 0.5 0.5 0.4 0.4 0.3 0.2 0.2 0.1 0.1 0.0 0.1 0.1 0.2 0.2 0.2 0.4 0.7 0.8
6.6 8.5 11.5 8.2 5.6 7.8 2.3 1.0 0.9 1.2 1.4 1.4 1.4 1.1 0.8 0.6 0.4 0.7 0.9 1.2 1.1 1.0 0.8 0.6 0.6 0.7 0.6 0.5 0.3 0.3 0.3 0.3 0.2 0.2 0.1 0.0 0.1 0.1 0.2 0.3 0.5 0.5 0.7 0.8
2.4 7.0 12.9 12.0 8.7 4.1 1.1 0.9 1.5 1.8 1.9 1.6 1.2 0.8 0.5 0.3 0.3 0.5 0.6 1.0 1.0 1.0 0.7 0.6 0.7 0.8 0.6 0.3 0.3 0.5 0.2 0.3 0.2 0.1 0.0 0.0 0.1 0.1 0.2 0.2 0.4 0.4 0.7 0.5
2.3 5.7 12.7 13.2 9.6 4.1 1.5 0.9 0.8 1.2 2.3 1.3 1.3 1.3 0.8 0.6 0.8 0.8 0.7 0.7 0.8 0.5 0.5 0.6 0.7 0.7 0.5 0.3 0.3 0.4 0.2 0.2 0.2 0.1 0.0 0.0 0.1 0.1 0.2 0.1 0.2 0.2 0.4 0.6
5.5 9.2 12.0 9.9 7.9 3.1 1.4 1.0 0.8 2.3 3.2 1.4 1.3 1.4 1.3 1.2 1.3 1.1 0.7 0.6 0.7 0.7 0.6 0.6 0.8 0.8 0.5 0.3 0.5 0.4 0.3 0.2 0.2 0.2 0.1 0.0 0.0 0.1 0.1 0.1 0.3 0.3 0.3 0.5
4.6 7.1 6.9 6.3 7.5 3.8 1.3 1.4 2.6 2.9 1.7 1.5 1.3 1.1 1.0 0.9 0.7 0.6 0.6 0.7 0.7 0.7 0.7 0.7 0.9 0.8 0.5 0.4 0.3 0.4 0.5 0.4 0.2 0.2 0.1 0.1 0.0 0.0 0.1 0.2 0.4 0.3 0.3 0.5
3.2 4.0 4.4 3.9 2.6 1.4 1.4 1.8 1.8 1.5 1.6 1.4 1.3 1.0 0.9 0.8 0.7 0.6 0.5 0.6 0.6 0.6 0.7 0.8 0.9 0.7 0.6 0.6 0.3 0.5 0.6 0.5 0.3 0.3 0.2 0.1 0.0 0.1 0.1 0.3 0.5 0.5 0.4 1.0
2.0 1.7 2.8 2.7 1.1 0.9 0.9 1.2 1.2 1.1 1.3 1.1 1.1 1.0 1.0 0.9 0.8 0.7 0.6 0.6 0.7 0.6 0.7 0.7 0.7 0.8 0.7 0.7 0.3 0.4 0.5 0.5 0.5 0.4 0.2 0.1 0.1 0.1 0.2 0.3 0.4 0.7 1.1 1.9
1.8 1.8 2.2 2.1 1.0 0.9 0.7 0.6 0.6 0.8 0.8 0.9 0.8 0.8 0.8 0.9 0.7 0.7 0.7 0.7 0.7 0.9 0.6 0.7 0.8 0.7 0.7 0.9 0.4 0.4 0.4 0.7 0.8 0.5 0.3 0.2 0.2 0.2 0.4 0.5 0.5 0.9 1.3 2.6
1.0 1.4 2.1 2.0 1.1 1.2 0.8 0.4 0.3 0.5 0.7 0.7 0.8 0.6 0.5 0.6 0.6 0.5 0.7 0.8 0.9 0.8 0.8 0.5 0.4 0.4 0.4 0.4 0.5 0.5 0.5 0.8 0.9 0.5 0.4 0.3 0.3 0.3 0.4 0.5 0.6 0.6 1.0 1.5